ALESUND/VIGRA current weather conditions

sailwx.info

Wind from 240 at 13 knots

Air temperature 3.0° C
Visibility: greater than 5.4 NM
Dewpoint 3.0° C

Last reported at 2018-Feb-21 04:50 UTC.
Time now 2018-Feb-21 05:49 UTC

Location: N 62°34' E 006°07'.
View on Google Maps.

See reports from other nearby stations

  
Tides and Currents Weather Stations Pressure Air Temp Water Temp Dewpoint Dewpoint Depression Visibility Wind Speed Wind Dir Waves Ship Positions
date/time (UTC)wind fromknots sea level pressurealtimeterstation pressurevisibilityair tempwater tempwave heightnotes
2018-Feb-21 04:50 240 13 5.4 3.0
2018-Feb-21 04:20 230 13 5.4 3.0
2018-Feb-21 03:50 230 12 5.4 3.0
2018-Feb-21 03:20 230 13 5.4 3.0 Light drizzle.
2018-Feb-21 02:50 220 9 5.4 3.0 Light drizzle.
2018-Feb-21 02:20 230 13 2.7 2.0 Rain.
2018-Feb-21 01:50 230 13 2.7 2.0 Light rain.
2018-Feb-21 01:20 220 11 5.4 3.0 Light rain.
2018-Feb-21 00:50 140 8 5.4 2.0 Light rain.
2018-Feb-21 00:20 150 7 5.4 2.0 Drizzle.
2018-Feb-20 23:50 140 11 5.4 2.0 Light drizzle.
2018-Feb-20 23:20 160 9 5.4 2.0 Light drizzle.
2018-Feb-20 22:50 160 11 5.4 2.0 Light drizzle.
2018-Feb-20 22:20 160 11 5.4 1.0 Light snow.
2018-Feb-20 21:50 160 13 5.4 1.0 Light snow.
2018-Feb-20 21:20 150 14 3.8 1.0 Light snow.
2018-Feb-20 20:50 150 12 3.2 1.0 Light snow.
2018-Feb-20 20:20 150 13 3.2 1.0 Light snow.
2018-Feb-20 19:50 160 9 5.4 3.0 Light snow.
2018-Feb-20 19:20 150 11 5.4 3.0
2018-Feb-20 18:50 140 11 5.4 3.0 Light snow.
2018-Feb-20 18:20 130 11 5.4 3.0 Light snow.
2018-Feb-20 17:50 140 11 5.4 3.0
2018-Feb-20 17:20 130 12 5.4 3.0
2018-Feb-20 16:50 140 11 5.4 3.0
2018-Feb-20 16:20 140 11 5.4 3.0
2018-Feb-20 15:50 140 12 5.4 3.0
2018-Feb-20 15:20 140 12 5.4 3.0
2018-Feb-20 14:50 150 12 5.4 3.0
2018-Feb-20 14:20 140 11 5.4 3.0
2018-Feb-20 13:50 130 12 5.4 3.0
2018-Feb-20 13:20 140 11 5.4 3.0
2018-Feb-20 12:50 150 9 5.4 3.0
2018-Feb-20 12:20 140 11 5.4 3.0
2018-Feb-20 11:50 140 11 5.4 3.0
2018-Feb-20 11:20 140 11 5.4 3.0
2018-Feb-20 10:50 140 12 5.4 3.0
2018-Feb-20 10:20 140 12 5.4 3.0
2018-Feb-20 09:50 140 12 5.4 2.0
2018-Feb-20 09:20 140 11 5.4 2.0
2018-Feb-20 08:50 140 12 5.4 2.0
2018-Feb-20 08:20 130 13 5.4 1.0
2018-Feb-20 07:50 140 9 5.4 1.0
2018-Feb-20 07:20 140 9 5.4-0.0
2018-Feb-20 06:50 140 11 5.4-0.0
2018-Feb-20 06:20 140 11 5.4-0.0
2018-Feb-20 05:50 140 13 5.4-0.0
2018-Feb-20 05:20 140 11 5.4-0.0
2018-Feb-20 04:50 140 12 5.4-0.0
2018-Feb-20 04:20 140 12 5.4-0.0
2018-Feb-20 03:50 140 12 5.4-0.0
2018-Feb-20 03:20 140 11 5.4 1.0
2018-Feb-20 02:50 140 12 5.4 1.0
2018-Feb-20 02:20 140 11 5.4 1.0
2018-Feb-20 01:50 140 11 5.4 1.0
2018-Feb-20 01:20 140 11 5.4 1.0
2018-Feb-20 00:50 140 9 5.4 1.0
2018-Feb-20 00:20 140 9 5.4 1.0
2018-Feb-19 23:50 140 9 5.4 1.0
2018-Feb-19 23:20 150 8 5.4-0.0
2018-Feb-19 22:50 150 8 5.4 1.0
2018-Feb-19 22:20 150 8 5.4 1.0
2018-Feb-19 21:50 140 9 5.4 1.0
2018-Feb-19 21:20 150 8 5.4 1.0
2018-Feb-19 20:50 140 8 5.4 1.0
2018-Feb-19 20:20 140 7 5.4 1.0
2018-Feb-19 19:50 140 7 5.4 1.0
2018-Feb-19 19:20 150 7 5.4 2.0
2018-Feb-19 18:50 150 6 5.4 2.0
2018-Feb-19 18:20 150 6 5.4-0.0
2018-Feb-19 17:50 150 6 5.4-0.0
2018-Feb-19 17:20 150 6 5.4-1.0
2018-Feb-19 16:50 5.4 1.0
2018-Feb-19 16:20 5.4 3.0
2018-Feb-19 15:50 090 4 gusting 15 5.4 4.0
2018-Feb-19 15:20 070 5 5.4 4.0
2018-Feb-19 14:50 050 6 5.4 5.0
2018-Feb-19 14:20 050 6 5.4 5.0
2018-Feb-19 13:50 060 5 5.4 5.0
2018-Feb-19 13:20 050 5 5.4 5.0
2018-Feb-19 12:50 060 6 5.4 5.0
2018-Feb-19 12:20 060 5 5.4 5.0
2018-Feb-19 11:50 030 5 5.4 5.0
2018-Feb-19 11:20 140 2 5.4 5.0
2018-Feb-19 10:50 5.4 5.0
2018-Feb-19 10:20 5.4 5.0
2018-Feb-19 09:50 5.4 4.0
2018-Feb-19 09:20 150 5 5.4 3.0
2018-Feb-19 08:50 150 5 5.4 2.0
2018-Feb-19 08:20 130 5 5.4 2.0
2018-Feb-19 07:50 080 4 5.4-0.0
2018-Feb-19 07:20 160 4 5.4-1.0
2018-Feb-19 06:50 140 2 5.4-0.0
2018-Feb-19 06:20 140 5 5.4-0.0
2018-Feb-19 05:50 5.4-1.0
2018-Feb-19 05:20 110 5 5.4-0.0